Flag for U.S.A. Weather past 2 weeks in Redmond, Washington, U.S.A.

Now
66 °F

Clear.


Feels Like: 66 °F
Forecast: 58 / 80 °F
Wind: No wind

Location: Seattle Boeing Field

Current Time: Aug 23, 2014 at 1:34:56 AM

Latest Report: Aug 23, 2014 at 12:53 AM


Visibility: 10 mi

Pressure: 30.10 "Hg

Humidity: 68%

Dew point: 55 °F

Location of RedmondLocation

Historic Weather in Redmond — Graph

°F

Redmond temperature yesterday

Maximum temperature yesterday: 77 °F (at 4:53 PM)
Minimum temperature yesterday: 59 °F (at 6:53 AM)
Average temperature yesterday: 68 °F

Past Weeks' High & Low Weather Summary

 TemperatureHumidityPressure
High93 °F (Aug 11, 3:53 PM)87% (Aug 13, 1:53 AM)30.16 "Hg (Aug 13, 1:53 AM)
Low57 °F (Aug 21, 5:53 AM)27% (Aug 11, 4:53 PM)29.77 "Hg (Aug 19, 5:53 PM)
Average71 °F60%29.99 "Hg
* Reported Aug 7 11:53 PM — Aug 22 11:53 PM, Redmond, Weather by CustomWeather, © 2014

Note: Actual official high and low records may vary slightly from our data, if they occured in-between our weather recording intervals... More about our weather records

Advertising

Redmond weather history for previous 24 hours

 ConditionsComfort  
Time TempWeatherWind HumidityBarometerVisibility
11:53 PM
Aug 22
67 °FClear.No wind66%30.09 "Hg10 mi
10:53 PM68 °FClear.3 mph63%30.09 "Hg10 mi
9:53 PM71 °FClear.No wind59%30.08 "Hg10 mi
8:53 PM73 °FScattered clouds.3 mph53%30.07 "Hg10 mi
7:53 PM73 °FScattered clouds.3 mph53%30.05 "Hg10 mi
6:53 PM75 °FPassing clouds.3 mph48%30.05 "Hg10 mi
5:53 PM76 °FScattered clouds.6 mph47%30.05 "Hg10 mi
4:53 PM77 °FSunny.7 mph42%30.04 "Hg10 mi
3:53 PM75 °FPassing clouds.9 mph47%30.04 "Hg10 mi
2:53 PM75 °FSunny.12 mph48%30.04 "Hg10 mi
1:53 PM73 °FScattered clouds.8 mph50%30.05 "Hg10 mi
12:53 PM72 °FScattered clouds.6 mph52%30.05 "Hg10 mi
11:53 AM68 °FPartly sunny.6 mph57%30.06 "Hg10 mi
10:53 AM66 °FOvercast.6 mph61%30.06 "Hg10 mi
9:53 AM65 °FBroken clouds.5 mph66%30.06 "Hg10 mi
8:53 AM64 °FScattered clouds.No wind65%30.05 "Hg10 mi
7:53 AM62 °FPassing clouds.No wind70%30.05 "Hg10 mi
6:53 AM59 °FClear.No wind78%30.03 "Hg10 mi
5:53 AM60 °FClear.No wind75%30.03 "Hg10 mi
4:53 AM60 °FClear.No wind75%30.01 "Hg10 mi
3:53 AM60 °FClear.No wind75%30.01 "Hg10 mi
2:53 AM62 °FClear.No wind73%30.01 "Hg10 mi
1:53 AM61 °FClear.No wind75%30.00 "Hg10 mi
Weather by CustomWeather, © 2014

See weather overviewHow to use our weather pages